This is the latest recevied weather packets stored in our database for station/object KD7JB. If no packets are shown the sender has not sent any weather packets the latest 10 day(s).
| Time | Temp. | Humidity | Pressure | Rain* | Wind** | Luminosity | Snow |
|---|---|---|---|---|---|---|---|
| 1777571674 | 13.89° C | 46% | 1183.6 hPa | 0 mm | - | 663 W/m² | - |
| 1777571372 | 13.33° C | 48% | 1183.6 hPa | 0 mm | - | 654 W/m² | - |
| 1777571068 | 13.33° C | 45% | 1183.6 hPa | 0 mm | - | 650 W/m² | - |
| 1777570764 | 13.33° C | 46% | 1183.4 hPa | 0 mm | - | 635 W/m² | - |
| 1777570460 | 12.78° C | 46% | 1183.7 hPa | 0 mm | - | 623 W/m² | - |
| 1777570156 | 14.44° C | 46% | 1183.7 hPa | 0 mm | - | 613 W/m² | - |
| 1777569853 | 14.44° C | 48% | 1183.7 hPa | 0 mm | - | 601 W/m² | - |
| 1777569549 | 14.44° C | 46% | 1183.6 hPa | 0 mm | - | 589 W/m² | - |
| 1777569245 | 12.78° C | 45% | 1183.7 hPa | 0 mm | - | 581 W/m² | - |
| 1777568941 | 13.33° C | 46% | 1183.7 hPa | 0 mm | - | 571 W/m² | - |
| 1777568638 | 13.33° C | 45% | 1183.6 hPa | 0 mm | - | 558 W/m² | - |
| 1777568335 | 12.78° C | 50% | 1183.8 hPa | 0 mm | - | 546 W/m² | - |
| 1777568031 | 13.33° C | 49% | 1183.7 hPa | 0 mm | - | 535 W/m² | - |
| 1777567729 | 13.89° C | 49% | 1183.7 hPa | 0 mm | - | 523 W/m² | - |
| 1777567425 | 13.33° C | 49% | 1183.7 hPa | 0 mm | - | 510 W/m² | - |
| 1777567123 | 13.33° C | 46% | 1183.6 hPa | 0 mm | - | 499 W/m² | - |
| 1777566821 | 13.33° C | 52% | 1183.7 hPa | 0 mm | - | 489 W/m² | - |
| 1777566518 | 12.78° C | 51% | 1183.6 hPa | 0 mm | - | 476 W/m² | - |
| 1777566216 | 12.78° C | 48% | 1183.7 hPa | 0 mm | - | 463 W/m² | - |
| 1777565912 | 13.33° C | 47% | 1183.6 hPa | 0 mm | - | 451 W/m² | - |
| 1777565608 | 12.78° C | 48% | 1183.7 hPa | 0 mm | - | 437 W/m² | - |
| 1777565305 | 12.78° C | 49% | 1183.7 hPa | 0 mm | - | 424 W/m² | - |
| 1777565001 | 13.33° C | 46% | 1183.6 hPa | 0 mm | - | 412 W/m² | - |
| 1777564697 | 12.78° C | 48% | 1183.7 hPa | 0 mm | - | 398 W/m² | - |
| 1777564397 | 12.78° C | 49% | 1183.6 hPa | 0 mm | - | 393 W/m² | - |
* Rain latest hour (hover to see other rain measurements)
** Current wind speed in m/s (hover to see current wind gust speed)